| time (UTC) | temp F | wind direction | speed MPH | gust MPH | rain 1hr in | rain 24hr in | rain mn in | humidity % | barometer mb |
| 20260506084313 | 46 | 119 | 5.0 | 14.0 | 0.00 | 0.00 | 0.00 | 77 | 1016.7 |
| 20260506083812 | 46 | 31 | 6.0 | 14.0 | 0.00 | 0.00 | 0.00 | 77 | 1016.7 |
| 20260506083313 | 46 | 165 | 6.0 | 13.0 | 0.00 | 0.00 | 0.00 | 75 | 1016.7 |
| 20260506082813 | 46 | 58 | 5.0 | 12.0 | 0.00 | 0.00 | 0.00 | 75 | 1016.6 |
| 20260506082313 | 46 | 293 | 6.0 | 14.0 | 0.00 | 0.00 | 0.00 | 73 | 1016.6 |
| 20260506081812 | 46 | 0 | 6.0 | 14.0 | 0.00 | 0.00 | 0.00 | 73 | 1016.5 |
| 20260506081313 | 47 | 304 | 5.0 | 13.0 | 0.00 | 0.00 | 0.00 | 74 | 1016.5 |
| 20260506080813 | 47 | 27 | 7.0 | 15.0 | 0.00 | 0.00 | 0.00 | 74 | 1016.5 |
| 20260506080313 | 47 | 359 | 8.0 | 15.0 | 0.00 | 0.00 | 0.00 | 74 | 1016.4 |
| 20260506073313 | 47 | 95 | 8.0 | 16.0 | 0.00 | 0.00 | 0.00 | 74 | 1016.1 |
| 20260506072813 | 47 | 35 | 7.0 | 16.0 | 0.00 | 0.00 | 0.00 | 75 | 1016.3 |
| 20260506072313 | 47 | 11 | 6.0 | 13.0 | 0.00 | 0.00 | 0.00 | 76 | 1016.2 |
| 20260506071813 | 46 | 212 | 7.0 | 15.0 | 0.00 | 0.00 | 0.00 | 76 | 1016.1 |
| 20260506071312 | 46 | 53 | 7.0 | 17.0 | 0.00 | 0.00 | 0.00 | 75 | 1016.2 |
| 20260506070812 | 46 | 28 | 8.0 | 17.0 | 0.00 | 0.00 | 0.00 | 77 | 1016.1 |
| 20260506070312 | 46 | 28 | 8.0 | 15.0 | 0.00 | 0.00 | 0.00 | 77 | 1016.0 |
| 20260506062311 | 46 | 62 | 8.0 | 16.0 | 0.00 | 0.00 | 0.00 | 75 | 1015.7 |
| 20260506061811 | 46 | 52 | 7.0 | 14.0 | 0.00 | 0.00 | 0.00 | 76 | 1015.7 |
| 20260506061310 | 46 | 18 | 7.0 | 13.0 | 0.00 | 0.00 | 0.00 | 76 | 1015.7 |
| 20260506060810 | 46 | 347 | 7.0 | 13.0 | 0.00 | 0.00 | 0.00 | 76 | 1015.7 |
| 20260506060311 | 46 | 34 | 6.0 | 13.0 | 0.00 | 0.00 | 0.00 | 77 | 1015.7 |
| 20260506051302 | 45 | 18 | 6.0 | 14.0 | 0.00 | 0.00 | 0.00 | 78 | 1015.6 |
| 20260506050803 | 45 | 13 | 6.0 | 14.0 | 0.00 | 0.00 | 0.00 | 77 | 1015.5 |
| 20260506050303 | 45 | 14 | 6.0 | 15.0 | 0.00 | 0.00 | 0.00 | 77 | 1015.6 |
| 20260506044749 | 45 | 238 | 5.0 | 13.0 | 0.00 | 0.00 | 0.00 | 77 | 1015.6 |
| 20260506044247 | 45 | 97 | 6.0 | 12.0 | 0.00 | 0.00 | 0.00 | 76 | 1015.6 |
| 20260506043744 | 45 | 27 | 6.0 | 12.0 | 0.00 | 0.00 | 0.00 | 76 | 1015.5 |
| 20260506043245 | 45 | 30 | 4.0 | 10.0 | 0.00 | 0.00 | 0.00 | 76 | 1015.5 |
| 20260506042744 | 45 | 34 | 3.0 | 10.0 | 0.00 | 0.00 | 0.00 | 77 | 1015.5 |
| 20260506042242 | 45 | 32 | 4.0 | 10.0 | 0.00 | 0.00 | 0.00 | 77 | 1015.5 |
| 20260506041742 | 45 | 84 | 4.0 | 9.0 | 0.00 | 0.00 | 0.00 | 77 | 1015.5 |
| 20260506041243 | 45 | 34 | 4.0 | 11.0 | 0.00 | 0.00 | 0.00 | 77 | 1015.5 |
| 20260506040742 | 45 | 53 | 5.0 | 12.0 | 0.00 | 0.00 | 0.00 | 77 | 1015.5 |
| 20260506040242 | 45 | 37 | 5.0 | 12.0 | 0.00 | 0.00 | 0.00 | 77 | 1015.5 |
| 20260506035743 | 45 | 12 | 4.0 | 11.0 | 0.00 | 0.00 | 0.00 | 78 | 1015.4 |
| 20260506035242 | 45 | 7 | 4.0 | 10.0 | 0.00 | 0.00 | 0.00 | 79 | 1015.5 |
| 20260506034742 | 45 | 296 | 4.0 | 10.0 | 0.00 | 0.00 | 0.00 | 78 | 1015.5 |
| 20260506034242 | 45 | 13 | 4.0 | 10.0 | 0.00 | 0.00 | 0.00 | 78 | 1015.5 |
| 20260506033742 | 45 | 81 | 5.0 | 11.0 | 0.00 | 0.00 | 0.00 | 78 | 1015.5 |
| 20260506033241 | 45 | 347 | 4.0 | 11.0 | 0.00 | 0.00 | 0.00 | 78 | 1015.5 |
| 20260506032736 | 45 | 29 | 4.0 | 12.0 | 0.00 | 0.00 | 0.00 | 78 | 1015.5 |
| 20260506032235 | 45 | 27 | 4.0 | 12.0 | 0.00 | 0.00 | 0.00 | 78 | 1015.4 |
| 20260506031735 | 45 | 5 | 4.0 | 11.0 | 0.00 | 0.00 | 0.00 | 77 | 1015.5 |
| 20260506031236 | 45 | 46 | 5.0 | 12.0 | 0.00 | 0.00 | 0.00 | 76 | 1015.4 |
| 20260506030736 | 45 | 329 | 6.0 | 12.0 | 0.00 | 0.00 | 0.00 | 76 | 1015.5 |
| 20260506030236 | 45 | 323 | 5.0 | 11.0 | 0.00 | 0.00 | 0.00 | 76 | 1015.4 |
| 20260506025736 | 45 | 19 | 5.0 | 11.0 | 0.00 | 0.00 | 0.00 | 77 | 1015.5 |
| 20260506025237 | 45 | 118 | 6.0 | 11.0 | 0.00 | 0.00 | 0.00 | 77 | 1015.6 |
| 20260506024736 | 45 | 25 | 6.0 | 11.0 | 0.00 | 0.00 | 0.00 | 77 | 1015.6 |
| 20260506024236 | 45 | 34 | 5.0 | 10.0 | 0.00 | 0.00 | 0.00 | 77 | 1015.6 |
| 20260506023736 | 45 | 354 | 4.0 | 10.0 | 0.00 | 0.00 | 0.00 | 78 | 1015.6 |
| 20260506023236 | 45 | 337 | 4.0 | 10.0 | 0.00 | 0.00 | 0.00 | 78 | 1015.6 |
| 20260506022736 | 45 | 34 | 5.0 | 12.0 | 0.00 | 0.00 | 0.00 | 78 | 1015.6 |
| 20260506022236 | 45 | 20 | 5.0 | 13.0 | 0.00 | 0.00 | 0.00 | 78 | 1015.7 |
| 20260506021736 | 45 | 76 | 5.0 | 14.0 | 0.00 | 0.00 | 0.00 | 78 | 1015.7 |
| 20260506021229 | 45 | 347 | 5.0 | 14.0 | 0.00 | 0.00 | 0.00 | 78 | 1015.7 |
| 20260506020730 | 45 | 58 | 5.0 | 11.0 | 0.00 | 0.00 | 0.00 | 79 | 1015.8 |
| 20260506020229 | 45 | 42 | 4.0 | 9.0 | 0.00 | 0.00 | 0.00 | 79 | 1015.8 |
| 20260506015733 | 46 | 170 | 4.0 | 11.0 | 0.00 | 0.00 | 0.00 | 78 | 1015.8 |
| 20260506015230 | 46 | 129 | 4.0 | 11.0 | 0.00 | 0.00 | 0.00 | 77 | 1015.7 |
| 20260506014729 | 46 | 358 | 5.0 | 10.0 | 0.00 | 0.00 | 0.00 | 77 | 1015.9 |
| 20260506014230 | 46 | 340 | 4.0 | 9.0 | 0.00 | 0.00 | 0.00 | 77 | 1015.8 |
| 20260506013730 | 46 | 15 | 4.0 | 11.0 | 0.00 | 0.00 | 0.00 | 77 | 1015.7 |
| 20260506013230 | 46 | 60 | 5.0 | 12.0 | 0.00 | 0.00 | 0.00 | 77 | 1015.8 |
| 20260506012730 | 45 | 5 | 4.0 | 12.0 | 0.00 | 0.00 | 0.00 | 77 | 1015.7 |
| 20260506012230 | 45 | 30 | 3.0 | 9.0 | 0.00 | 0.00 | 0.00 | 78 | 1015.7 |
| 20260506011729 | 45 | 319 | 3.0 | 7.0 | 0.00 | 0.00 | 0.00 | 78 | 1015.8 |
| 20260506011229 | 45 | 346 | 4.0 | 9.0 | 0.00 | 0.00 | 0.00 | 78 | 1015.7 |
| 20260506010730 | 45 | 347 | 4.0 | 10.0 | 0.00 | 0.00 | 0.00 | 78 | 1015.7 |
| 20260506010230 | 45 | 30 | 4.0 | 11.0 | 0.00 | 0.00 | 0.00 | 78 | 1015.8 |
| 20260506005725 | 45 | 321 | 4.0 | 11.0 | 0.00 | 0.00 | 0.00 | 78 | 1015.9 |
| 20260506005226 | 45 | 22 | 4.0 | 8.0 | 0.00 | 0.00 | 0.00 | 78 | 1015.9 |
| 20260506004726 | 45 | 336 | 4.0 | 8.0 | 0.00 | 0.00 | 0.00 | 78 | 1015.9 |
| 20260506004226 | 45 | 338 | 4.0 | 10.0 | 0.00 | 0.00 | 0.00 | 78 | 1015.9 |
| 20260506003726 | 45 | 317 | 4.0 | 11.0 | 0.00 | 0.00 | 0.00 | 78 | 1015.9 |
| 20260506003226 | 45 | 2 | 4.0 | 11.0 | 0.00 | 0.00 | 0.00 | 77 | 1015.9 |
| 20260506002726 | 45 | 30 | 5.0 | 10.0 | 0.00 | 0.00 | 0.00 | 77 | 1016.0 |
| 20260506002226 | 45 | 219 | 5.0 | 10.0 | 0.00 | 0.00 | 0.00 | 77 | 1016.0 |
| 20260506001726 | 45 | 333 | 5.0 | 10.0 | 0.00 | 0.00 | 0.00 | 77 | 1015.9 |
| 20260506001226 | 46 | 13 | 5.0 | 13.0 | 0.00 | 0.00 | 0.00 | 78 | 1016.1 |
| 20260506000725 | 46 | 1 | 5.0 | 13.0 | 0.00 | 0.00 | 0.00 | 78 | 1016.1 |
| 20260506000227 | 46 | 64 | 5.0 | 13.0 | 0.00 | 0.00 | 0.00 | 78 | 1016.1 |
| 20260505235725 | 46 | 28 | 4.0 | 11.0 | 0.00 | 0.00 | 0.00 | 78 | 1016.1 |
| 20260505235226 | 46 | 341 | 4.0 | 10.0 | 0.00 | 0.00 | 0.00 | 78 | 1016.1 |
| 20260505234726 | 46 | 335 | 3.0 | 10.0 | 0.00 | 0.00 | 0.00 | 79 | 1016.1 |
| 20260505234226 | 46 | 322 | 3.0 | 10.0 | 0.00 | 0.00 | 0.00 | 79 | 1016.2 |
| 20260505233725 | 46 | 330 | 4.0 | 10.0 | 0.00 | 0.00 | 0.00 | 78 | 1016.2 |
| 20260505233225 | 46 | 321 | 4.0 | 9.0 | 0.00 | 0.00 | 0.00 | 77 | 1016.2 |
| 20260505232725 | 46 | 113 | 4.0 | 11.0 | 0.00 | 0.00 | 0.00 | 77 | 1016.1 |
| 20260505232226 | 46 | 44 | 4.0 | 11.0 | 0.00 | 0.00 | 0.00 | 77 | 1016.2 |
| 20260505231726 | 46 | 349 | 5.0 | 14.0 | 0.00 | 0.00 | 0.00 | 77 | 1016.2 |
| 20260505231225 | 46 | 44 | 4.0 | 14.0 | 0.00 | 0.00 | 0.00 | 77 | 1016.2 |
| 20260505230726 | 46 | 61 | 4.0 | 10.0 | 0.00 | 0.00 | 0.00 | 78 | 1016.2 |
| 20260505230226 | 46 | 22 | 4.0 | 10.0 | 0.00 | 0.00 | 0.00 | 78 | 1016.3 |
| 20260505225725 | 46 | 49 | 4.0 | 11.0 | 0.00 | 0.00 | 0.00 | 78 | 1016.3 |
| 20260505225225 | 46 | 0 | 5.0 | 11.0 | 0.00 | 0.00 | 0.00 | 78 | 1016.3 |
| 20260505224725 | 46 | 84 | 5.0 | 13.0 | 0.00 | 0.00 | 0.00 | 78 | 1016.3 |
| 20260505224225 | 46 | 67 | 5.0 | 13.0 | 0.00 | 0.00 | 0.00 | 79 | 1016.3 |
| 20260505223724 | 46 | 345 | 5.0 | 11.0 | 0.00 | 0.00 | 0.00 | 79 | 1016.3 |
| 20260505223225 | 46 | 75 | 5.0 | 11.0 | 0.00 | 0.00 | 0.00 | 79 | 1016.4 |
| 20260505222725 | 45 | 30 | 4.0 | 9.0 | 0.00 | 0.00 | 0.00 | 79 | 1016.4 |
| 20260505222225 | 46 | 86 | 4.0 | 11.0 | 0.00 | 0.00 | 0.00 | 79 | 1016.4 |
| 20260505221724 | 45 | 308 | 4.0 | 11.0 | 0.00 | 0.00 | 0.00 | 79 | 1016.5 |
| 20260505221225 | 45 | 32 | 4.0 | 9.0 | 0.00 | 0.00 | 0.00 | 79 | 1016.5 |
| 20260505220725 | 46 | 326 | 4.0 | 9.0 | 0.00 | 0.00 | 0.00 | 79 | 1016.6 |
| 20260505220218 | 46 | 338 | 4.0 | 9.0 | 0.00 | 0.00 | 0.00 | 79 | 1016.5 |
| 20260505215712 | 46 | 120 | 4.0 | 9.0 | 0.00 | 0.00 | 0.00 | 79 | 1016.5 |
| 20260505215207 | 46 | 340 | 4.0 | 10.0 | 0.00 | 0.00 | 0.00 | 80 | 1016.4 |
| 20260505214706 | 46 | 237 | 5.0 | 11.0 | 0.00 | 0.00 | 0.00 | 80 | 1016.4 |
| 20260505214206 | 46 | 74 | 5.0 | 11.0 | 0.00 | 0.00 | 0.00 | 80 | 1016.4 |
| 20260505213706 | 46 | 297 | 5.0 | 11.0 | 0.00 | 0.00 | 0.00 | 80 | 1016.5 |
| 20260505213207 | 46 | 4 | 6.0 | 13.0 | 0.00 | 0.00 | 0.00 | 79 | 1016.3 |
| 20260505212706 | 46 | 354 | 6.0 | 13.0 | 0.00 | 0.00 | 0.00 | 79 | 1016.5 |
| 20260505212206 | 46 | 28 | 6.0 | 12.0 | 0.00 | 0.00 | 0.00 | 79 | 1016.5 |
| 20260505211707 | 46 | 356 | 5.0 | 12.0 | 0.00 | 0.00 | 0.00 | 80 | 1016.5 |
| 20260505211207 | 46 | 342 | 5.0 | 13.0 | 0.00 | 0.00 | 0.00 | 80 | 1016.6 |
| 20260505210707 | 46 | 275 | 5.0 | 14.0 | 0.00 | 0.00 | 0.00 | 80 | 1016.5 |
| 20260505210207 | 46 | 308 | 6.0 | 15.0 | 0.00 | 0.00 | 0.00 | 80 | 1016.5 |
| 20260505205707 | 46 | 351 | 6.0 | 15.0 | 0.00 | 0.00 | 0.00 | 80 | 1016.4 |
| 20260505205210 | 46 | 97 | 6.0 | 15.0 | 0.00 | 0.00 | 0.00 | 80 | 1016.5 |
| 20260505204707 | 46 | 88 | 5.0 | 15.0 | 0.00 | 0.00 | 0.00 | 80 | 1016.5 |
| 20260505204207 | 46 | 9 | 4.0 | 11.0 | 0.00 | 0.00 | 0.00 | 81 | 1016.6 |
| 20260505203707 | 46 | 261 | 5.0 | 14.0 | 0.00 | 0.00 | 0.00 | 81 | 1016.5 |
| 20260505203207 | 46 | 352 | 5.0 | 14.0 | 0.00 | 0.00 | 0.00 | 81 | 1016.4 |
| 20260505202707 | 46 | 20 | 5.0 | 12.0 | 0.00 | 0.00 | 0.00 | 81 | 1016.4 |
| 20260505202207 | 46 | 351 | 6.0 | 12.0 | 0.00 | 0.00 | 0.00 | 81 | 1016.4 |
| 20260505201707 | 46 | 97 | 6.0 | 12.0 | 0.00 | 0.00 | 0.00 | 81 | 1016.4 |
| 20260505201207 | 46 | 354 | 5.0 | 12.0 | 0.00 | 0.00 | 0.00 | 81 | 1016.3 |
| 20260505200706 | 46 | 300 | 5.0 | 11.0 | 0.00 | 0.00 | 0.00 | 81 | 1016.4 |
| 20260505200206 | 46 | 65 | 5.0 | 11.0 | 0.00 | 0.00 | 0.00 | 80 | 1016.4 |
| 20260505195706 | 46 | 6 | 6.0 | 15.0 | 0.00 | 0.00 | 0.00 | 80 | 1016.5 |
| 20260505195207 | 46 | 108 | 7.0 | 15.0 | 0.00 | 0.00 | 0.00 | 79 | 1016.5 |
| 20260505194707 | 46 | 332 | 8.0 | 14.0 | 0.00 | 0.00 | 0.00 | 79 | 1016.4 |
| 20260505194206 | 46 | 236 | 8.0 | 15.0 | 0.00 | 0.00 | 0.00 | 79 | 1016.3 |
| 20260505193703 | 46 | 344 | 7.0 | 15.0 | 0.00 | 0.00 | 0.00 | 80 | 1016.4 |
| 20260505193203 | 46 | 342 | 8.0 | 21.0 | 0.00 | 0.00 | 0.00 | 80 | 1016.3 |
| 20260505192703 | 46 | 127 | 8.0 | 21.0 | 0.00 | 0.00 | 0.00 | 79 | 1016.3 |
| 20260505192202 | 46 | 356 | 8.0 | 17.0 | 0.00 | 0.00 | 0.00 | 79 | 1016.0 |
| 20260505191702 | 47 | 56 | 8.0 | 18.0 | 0.00 | 0.00 | 0.00 | 79 | 1016.0 |
| 20260505191202 | 47 | 75 | 8.0 | 21.0 | 0.00 | 0.00 | 0.00 | 78 | 1015.9 |
| 20260505190703 | 47 | 94 | 9.0 | 21.0 | 0.00 | 0.00 | 0.00 | 78 | 1015.9 |
| 20260505190201 | 47 | 316 | 10.0 | 22.0 | 0.00 | 0.00 | 0.00 | 79 | 1015.9 |
| 20260505185703 | 47 | 63 | 9.0 | 22.0 | 0.00 | 0.00 | 0.00 | 79 | 1015.9 |
| 20260505185202 | 47 | 328 | 8.0 | 16.0 | 0.00 | 0.00 | 0.00 | 80 | 1015.8 |
| 20260505184702 | 47 | 169 | 9.0 | 20.0 | 0.00 | 0.00 | 0.00 | 80 | 1015.7 |
| 20260505184201 | 47 | 335 | 9.0 | 20.0 | 0.00 | 0.00 | 0.00 | 79 | 1015.7 |
| 20260505183653 | 47 | 333 | 10.0 | 21.0 | 0.00 | 0.00 | 0.00 | 78 | 1015.6 |
| 20260505183148 | 47 | 317 | 9.0 | 21.0 | 0.00 | 0.00 | 0.00 | 77 | 1015.6 |
| 20260505182648 | 47 | 352 | 8.0 | 16.0 | 0.00 | 0.00 | 0.00 | 77 | 1015.6 |
| 20260505182148 | 48 | 233 | 7.0 | 16.0 | 0.00 | 0.00 | 0.00 | 77 | 1015.7 |
| 20260505181648 | 48 | 140 | 7.0 | 15.0 | 0.00 | 0.00 | 0.00 | 77 | 1015.7 |
| 20260505181148 | 48 | 344 | 8.0 | 18.0 | 0.00 | 0.00 | 0.00 | 77 | 1015.7 |
| 20260505180650 | 48 | 59 | 8.0 | 19.0 | 0.00 | 0.00 | 0.00 | 76 | 1015.6 |
| 20260505180148 | 48 | 350 | 8.0 | 19.0 | 0.00 | 0.00 | 0.00 | 76 | 1015.7 |
| 20260505175648 | 48 | 330 | 9.0 | 19.0 | 0.00 | 0.00 | 0.00 | 77 | 1015.7 |
| 20260505175148 | 48 | 274 | 9.0 | 19.0 | 0.00 | 0.00 | 0.00 | 78 | 1015.7 |
| 20260505174648 | 48 | 347 | 8.0 | 19.0 | 0.00 | 0.00 | 0.00 | 79 | 1015.7 |
| 20260505174148 | 48 | 11 | 8.0 | 17.0 | 0.00 | 0.00 | 0.00 | 79 | 1015.8 |
| 20260505173648 | 49 | 14 | 8.0 | 16.0 | 0.00 | 0.00 | 0.00 | 79 | 1015.8 |
| 20260505173148 | 49 | 120 | 8.0 | 20.0 | 0.00 | 0.00 | 0.00 | 79 | 1015.8 |
| 20260505172647 | 49 | 352 | 9.0 | 20.0 | 0.00 | 0.00 | 0.00 | 79 | 1015.8 |
| 20260505172141 | 49 | 36 | 8.0 | 18.0 | 0.00 | 0.00 | 0.00 | 79 | 1015.8 |
| 20260505171642 | 49 | 330 | 7.0 | 19.0 | 0.00 | 0.00 | 0.00 | 80 | 1015.9 |
| 20260505171142 | 49 | 315 | 8.0 | 19.0 | 0.00 | 0.00 | 0.00 | 79 | 1015.9 |
| 20260505170641 | 49 | 100 | 9.0 | 19.0 | 0.00 | 0.00 | 0.00 | 79 | 1015.8 |
| 20260505170142 | 49 | 353 | 8.0 | 19.0 | 0.00 | 0.00 | 0.00 | 79 | 1015.9 |
| 20260505165642 | 50 | 55 | 8.0 | 16.0 | 0.00 | 0.00 | 0.00 | 79 | 1015.9 |
| 20260505165142 | 50 | 9 | 8.0 | 16.0 | 0.00 | 0.00 | 0.00 | 79 | 1015.9 |
| 20260505164642 | 50 | 59 | 8.0 | 19.0 | 0.00 | 0.00 | 0.00 | 78 | 1015.8 |
| 20260505164142 | 50 | 359 | 9.0 | 19.0 | 0.00 | 0.00 | 0.00 | 77 | 1015.7 |
| 20260505163642 | 50 | 84 | 7.0 | 15.0 | 0.00 | 0.00 | 0.00 | 77 | 1015.6 |
| 20260505163142 | 50 | 72 | 7.0 | 16.0 | 0.00 | 0.00 | 0.00 | 76 | 1015.6 |
| 20260505162642 | 50 | 55 | 7.0 | 16.0 | 0.00 | 0.00 | 0.00 | 76 | 1015.7 |
| 20260505162142 | 51 | 6 | 7.0 | 18.0 | 0.00 | 0.00 | 0.00 | 76 | 1015.6 |
| 20260505161642 | 51 | 34 | 7.0 | 18.0 | 0.00 | 0.00 | 0.00 | 76 | 1015.6 |
| 20260505161142 | 50 | 15 | 7.0 | 15.0 | 0.00 | 0.00 | 0.00 | 76 | 1015.5 |
| 20260505160638 | 50 | 282 | 7.0 | 17.0 | 0.00 | 0.00 | 0.00 | 76 | 1015.5 |
| 20260505160137 | 50 | 122 | 8.0 | 20.0 | 0.00 | 0.00 | 0.00 | 76 | 1015.6 |
| 20260505153138 | 50 | 3 | 8.0 | 19.0 | 0.00 | 0.00 | 0.00 | 76 | 1015.6 |
| 20260505152638 | 50 | 22 | 7.0 | 16.0 | 0.00 | 0.00 | 0.00 | 76 | 1015.7 |
| 20260505152138 | 50 | 319 | 6.0 | 16.0 | 0.00 | 0.00 | 0.00 | 76 | 1015.8 |
| 20260505151638 | 50 | 69 | 6.0 | 16.0 | 0.00 | 0.00 | 0.00 | 77 | 1015.6 |
| 20260505151137 | 51 | 345 | 7.0 | 16.0 | 0.00 | 0.00 | 0.00 | 77 | 1015.6 |
| 20260505150638 | 51 | 48 | 7.0 | 16.0 | 0.00 | 0.00 | 0.00 | 77 | 1015.7 |
| 20260505150137 | 51 | 325 | 8.0 | 18.0 | 0.00 | 0.00 | 0.00 | 78 | 1015.6 |
| 20260505140633 | 51 | 344 | 7.0 | 14.0 | 0.00 | 0.00 | 0.00 | 80 | 1015.4 |
| 20260505140134 | 51 | 121 | 8.0 | 15.0 | 0.00 | 0.00 | 0.00 | 80 | 1015.3 |
| 20260505130131 | 51 | 328 | 9.0 | 19.0 | 0.00 | 0.00 | 0.00 | 82 | 1015.1 |
| 20260505124632 | 51 | 85 | 7.0 | 14.0 | 0.00 | 0.00 | 0.00 | 81 | 1014.9 |
| 20260505124131 | 51 | 79 | 8.0 | 17.0 | 0.00 | 0.00 | 0.00 | 81 | 1015.0 |
| 20260505123632 | 51 | 348 | 8.0 | 17.0 | 0.00 | 0.00 | 0.00 | 81 | 1014.9 |
| 20260505123131 | 51 | 141 | 6.0 | 14.0 | 0.00 | 0.00 | 0.00 | 81 | 1014.9 |
| 20260505122631 | 51 | 45 | 7.0 | 16.0 | 0.00 | 0.00 | 0.00 | 81 | 1015.0 |
| 20260505122131 | 51 | 1 | 7.0 | 16.0 | 0.00 | 0.00 | 0.00 | 81 | 1014.8 |
| 20260505121626 | 51 | 356 | 7.0 | 14.0 | 0.00 | 0.00 | 0.00 | 80 | 1014.8 |
| 20260505121126 | 51 | 37 | 7.0 | 14.0 | 0.00 | 0.00 | 0.00 | 79 | 1014.9 |
| 20260505120626 | 52 | 336 | 6.0 | 13.0 | 0.00 | 0.00 | 0.00 | 78 | 1014.9 |
| 20260505120130 | 52 | 104 | 5.0 | 17.0 | 0.00 | 0.00 | 0.00 | 78 | 1014.9 |
| 20260505115126 | 52 | 90 | 6.0 | 14.0 | 0.00 | 0.00 | 0.00 | 78 | 1014.8 |
| 20260505114624 | 52 | 330 | 5.0 | 14.0 | 0.00 | 0.00 | 0.00 | 78 | 1015.0 |
| 20260505114123 | 52 | 350 | 4.0 | 10.0 | 0.00 | 0.00 | 0.00 | 77 | 1014.8 |
| 20260505113623 | 52 | 60 | 5.0 | 15.0 | 0.00 | 0.00 | 0.00 | 76 | 1014.9 |
| 20260505113123 | 52 | 336 | 7.0 | 15.0 | 0.00 | 0.00 | 0.00 | 77 | 1015.0 |
| 20260505112624 | 52 | 13 | 7.0 | 18.0 | 0.00 | 0.00 | 0.00 | 76 | 1014.9 |
| 20260505112123 | 52 | 4 | 7.0 | 18.0 | 0.00 | 0.00 | 0.00 | 76 | 1014.9 |
| 20260505111623 | 52 | 109 | 7.0 | 14.0 | 0.00 | 0.00 | 0.00 | 75 | 1014.9 |
| 20260505111123 | 52 | 15 | 6.0 | 15.0 | 0.00 | 0.00 | 0.00 | 76 | 1014.9 |
| 20260505110633 | 52 | 307 | 7.0 | 16.0 | 0.00 | 0.00 | 0.00 | 77 | 1014.9 |
| 20260505110124 | 52 | 336 | 6.0 | 16.0 | 0.00 | 0.00 | 0.00 | 77 | 1014.8 |
| 20260505102122 | 53 | 351 | 5.0 | 13.0 | 0.00 | 0.00 | 0.00 | 75 | 1014.8 |
| 20260505101620 | 53 | 61 | 6.0 | 14.0 | 0.00 | 0.00 | 0.00 | 74 | 1014.7 |
| 20260505101119 | 52 | 89 | 7.0 | 14.0 | 0.00 | 0.00 | 0.00 | 74 | 1014.8 |
| 20260505100619 | 53 | 328 | 6.0 | 11.0 | 0.00 | 0.00 | 0.00 | 73 | 1014.7 |
| 20260505100119 | 53 | 337 | 5.0 | 10.0 | 0.00 | 0.00 | 0.00 | 74 | 1014.7 |
| 20260505095617 | 53 | 352 | 5.0 | 10.0 | 0.00 | 0.00 | 0.00 | 74 | 1014.7 |
| 20260505095118 | 52 | 352 | 5.0 | 10.0 | 0.00 | 0.00 | 0.00 | 74 | 1014.8 |
| 20260505094617 | 53 | 63 | 4.0 | 9.0 | 0.00 | 0.00 | 0.00 | 74 | 1014.8 |
| 20260505094115 | 52 | 354 | 5.0 | 12.0 | 0.00 | 0.00 | 0.00 | 74 | 1014.8 |
| 20260505093615 | 52 | 6 | 6.0 | 12.0 | 0.00 | 0.00 | 0.00 | 74 | 1014.8 |
| 20260505093116 | 52 | 348 | 5.0 | 12.0 | 0.00 | 0.00 | 0.00 | 74 | 1014.8 |
| 20260505092615 | 52 | 119 | 5.0 | 11.0 | 0.00 | 0.00 | 0.00 | 74 | 1014.7 |
| 20260505092116 | 52 | 350 | 5.0 | 11.0 | 0.00 | 0.00 | 0.00 | 74 | 1014.9 |
| 20260505091615 | 52 | 140 | 4.0 | 9.0 | 0.00 | 0.00 | 0.00 | 74 | 1014.9 |
| 20260505091115 | 52 | 326 | 4.0 | 8.0 | 0.00 | 0.00 | 0.00 | 73 | 1014.8 |
| 20260505090611 | 52 | 51 | 4.0 | 9.0 | 0.00 | 0.00 | 0.00 | 74 | 1014.8 |
| 20260505090110 | 52 | 16 | 4.0 | 10.0 | 0.00 | 0.00 | 0.00 | 73 | 1014.8 |
| 20260505085612 | 52 | 14 | 5.0 | 11.0 | 0.00 | 0.00 | 0.00 | 73 | 1014.8 |
| 20260505085111 | 51 | 325 | 6.0 | 15.0 | 0.00 | 0.00 | 0.00 | 73 | 1014.7 |
| 20260505084611 | 51 | 41 | 7.0 | 15.0 | 0.00 | 0.00 | 0.00 | 73 | 1014.7 |